Location: Gro�sch�nbrunn
(49.5760°N, 11.8868°E)
Time: 13:27:40
(UTC+00:00)

Okean 1 Rocket - Pass Details

Date: 18 September 2020
Orbit: 606 x 635 km, 82.5° (Epoch: 21 October)

Event Time Altitude Azimuth Distance (km) Brightness Sun altitude
Exits shadow 19:51:19 57° 209° (SSW) 755 3.3 -24.1°
Maximum altitude 19:52:12 78° 279° (W) 655 3.1 -24.2°
Drops below altitude 10° 19:56:44 10° 8° (N) 2,035 6.0 -24.8°
Sets 19:59:00 0° 9° (N) 2,947 6.9 -25.1°
